Volver al catálogo

STARLINK-37393

ActivoComunicacionesSSO
NORAD 68776·PAYLOAD·🇺🇸 United States

Lanzado Apr 19, 2026 desde Vandenberg Space Force Base

Loading…

Próximos Pases (próximas 24 horas)

TLE

ActualizadoSource: CelesTrak SupGP

Época: Sep 15, 2026, 03:08 UTC

1 68776C 26086L   26258.13104167 -.00020688  00000+0 -64221-3 0  2583
2 68776  97.2841 293.6383 0001152  90.8697 217.0329 15.33450357    10

Sigue STARLINK-37393 en tiempo real con AllMySat

Download on the App Store